User: anonymous   Login
Location: Mentone
(34.5413°N, 85.5351°W)
Time: 02:45:13
(UTC-05:00)
Language:

AO-Echo - Orbit

View from above orbital plane
View from above orbital plane
View from above satellite
View from above satellite

Ground track
Ground track

The orbit data is extracted from the following two-line orbital elements,

1 28375U 04025K   14296.07148768  .00000671  00000-0  21205-3 0  9750
2 28375 098.2649 238.7087 0082114 326.5825 033.0197 14.41466422542320
Epoch (UTC): 23 October 2014 01:42:56
Eccentricity: 0.0082114
inclination: 98.2649°
perigee height: 695 km
apogee height: 812 km
right ascension of ascending node: 238.7087°
argument of perigee: 326.5825°
revolutions per day: 14.41466422
mean anomaly at epoch: 33.0197°
orbit number at epoch: 54232

The dashed part of the orbit path shows where the satellite is in the earth's shadow,  

DLR